This is the latest recevied weather packets stored in our database for station/object N4QD-13. If no packets are shown the sender has not sent any weather packets the latest 10 day(s).
| Time | Temp. | Humidity | Pressure | Rain* | Wind** | Luminosity | Snow |
|---|---|---|---|---|---|---|---|
| 1777515508 | 15° C | 99% | 1010 hPa | 0 mm | - | 0 W/m² | - |
| 1777515205 | 15° C | 99% | 1009.6 hPa | 0 mm | - | 0 W/m² | - |
| 1777514901 | 15° C | 99% | 1009.9 hPa | 0 mm | - | 0 W/m² | - |
| 1777514598 | 15.56° C | 99% | 1009.7 hPa | 0 mm | - | 0 W/m² | - |
| 1777514296 | 15° C | 99% | 1009.9 hPa | 0 mm | - | 0 W/m² | - |
| 1777513991 | 15.56° C | 99% | 1009.5 hPa | 0 mm | - | 0 W/m² | - |
| 1777513690 | 15.56° C | 99% | 1010.1 hPa | 0 mm | - | 0 W/m² | - |
| 1777513082 | 15.56° C | 99% | 1009.9 hPa | 0 mm | - | 0 W/m² | - |
| 1777512778 | 15.56° C | 99% | 1009.9 hPa | 0 mm | - | 0 W/m² | - |
| 1777511869 | 15.56° C | 99% | 1009.4 hPa | 0 mm | - | 0 W/m² | - |
| 1777511571 | 15.56° C | 99% | 1009.6 hPa | 0 mm | - | 0 W/m² | - |
| 1777510959 | 15.56° C | 99% | 1009.2 hPa | 6.1 mm | - | 0 W/m² | - |
| 1777508836 | 15.56° C | 99% | 1008.7 hPa | 0 mm | - | 0 W/m² | - |
| 1777508533 | 15.56° C | 99% | 1008.7 hPa | 0 mm | - | 0 W/m² | - |
| 1777508230 | 15.56° C | 99% | 1008.6 hPa | 0 mm | - | 0 W/m² | - |
| 1777507624 | 15.56° C | 99% | 1008.4 hPa | 0 mm | - | 0 W/m² | - |
| 1777507320 | 15.56° C | 99% | 1008.4 hPa | 0 mm | - | 1 W/m² | - |
| 1777507018 | 15.56° C | 99% | 1008.4 hPa | 0 mm | - | 4 W/m² | - |
| 1777506108 | 15.56° C | 99% | 1008.4 hPa | 0 mm | - | 9 W/m² | - |
| 1777500953 | 16.11° C | 99% | 1008.2 hPa | 0 mm | - | 55 W/m² | - |
| 1777494886 | 15° C | 99% | 1009.4 hPa | 0 mm | - | 94 W/m² | - |
| 1777493675 | 15.56° C | 99% | 1009.5 hPa | 1.78 mm | - | 138 W/m² | - |
| 1777491551 | 15° C | 99% | 1009.9 hPa | 0 mm | - | 163 W/m² | - |
| 1777491249 | 15° C | 99% | 1010.2 hPa | 0 mm | - | 152 W/m² | - |
| 1777490944 | 15° C | 99% | 1010.1 hPa | 0 mm | - | 139 W/m² | - |
* Rain latest hour (hover to see other rain measurements)
** Current wind speed in m/s (hover to see current wind gust speed)